Regional Weather Roundup
Issued by NWS

Home | Current Version | Previous Version | Graphics & Text | Print | Product List | Glossary On
Versions: 1 2 3 4 5 6 7 8 9 10 11 12 13 14 15 16 17 18 19 20 21 22 23 24 25 26 27 28 29 30 31 32 33 34 35 36 37 38 39 40 41 42 43 44 45 46 47 48 49 50
000
ASUS43 KLMK 221510
RWRKY
KENTUCKY REGIONAL WEATHER ROUNDUP
NATIONAL WEATHER SERVICE LOUISVILLE KY
1000 AM EST SAT NOV 22 2014

NOTE "FAIR" INDICATES FEW OR NO CLOUDS BELOW 12,000 FEET
WITH NO SIGNIFICANT WEATHER AND/OR OBSTRUCTIONS TO VISIBILITY.

KYZ001>023-026-027-061>063-070>075-221600-
WESTERN AND SOUTH CENTRAL KENTUCKY

CITY           SKY/WX    TMP DP  RH WIND       PRES   REMARKS
PADUCAH        CLOUDY    56  41  57 S9        30.24F
HENDERSON      CLOUDY    55  39  54 S17       30.24S
OWENSBORO      CLOUDY    54  40  59 S16       30.26F
HOPKINSVILLE   PTSUNNY   56  36  45 S12G20    30.30F
BOWLING GREEN  CLOUDY    54  30  40 S15       30.33S
GLASGOW        PTSUNNY   51  28  40 S7        30.34S
$$

KYZ024-025-028>034-038-045-046-053-221600-
NORTH CENTRAL KENTUCKY

CITY           SKY/WX    TMP DP  RH WIND       PRES   REMARKS
LOUISVILLE/SDF LGT RAIN  52  35  52 S12       30.28F
LOUISVILLE/LOU CLOUDY    49  34  56 S8        30.29F
FORT KNOX      CLOUDY    51  36  56 S13       30.28F
$$

KYZ035>037-039>044-047>052-055>060-089>105-221600-
NORTHEAST KENTUCKY

CITY           SKY/WX    TMP DP  RH WIND       PRES   REMARKS
LEXINGTON      MOSUNNY   51  27  39 S17       30.31F
COVINGTON      CLOUDY    43  30  60 S13       30.26F
FRANKFORT      CLOUDY    50  32  50 SW13      30.30S
$$

KYZ054-064>069-076>088-106>120-221600-
SOUTHEAST KENTUCKY

CITY           SKY/WX    TMP DP  RH WIND       PRES   REMARKS
JACKSON        MOSUNNY   47  21  35 SW5       30.36S
LONDON         MOSUNNY   46  25  43 S6        30.38S
SOMERSET       MOSUNNY   50  27  40 S9        30.38F
MIDDLESBORO    MOSUNNY   40  27  59 CALM      30.43F
MONTICELLO     MOSUNNY   54  28  36 S16G23    30.39F
$$



USA.gov is the U.S. government's official web portal to all federal, state and local government web resources and services.